Location: �clusier
(49.9361°N, 2.7869°E)
Time: 07:05:08
(UTC+00:00)

ATLAS CENTAUR R/B - Pass Details

Date: 26 October 2021
Orbit: 452 x 688 km, 64.7° (Epoch: 06 December)

Event Time Altitude Azimuth Distance (km) Brightness Sun altitude
Exits shadow 05:33:58 - 317° (NW) 2,243 4.0 -9.4°
Reaches altitude 10° 05:35:23 10° 332° (NNW) 1,966 3.8 -9.1°
Maximum altitude 05:37:20 13° 358° (N) 1,830 3.9 -8.8°
Drops below altitude 10° 05:39:21 10° 24° (NNE) 2,029 4.4 -8.5°
Sets 05:43:05 0° 53° (NE) 2,991 5.8 -7.9°
